Torna al catalogo

STARLINK-5285

AttivoComunicazioniVLEO
NORAD 55296·PAYLOAD·🇺🇸 United States

Lanciato Jan 19, 2023 da Vandenberg Space Force Base

Loading…

Prossimi Passaggi (prossime 24 ore)

TLE

AggiornatoSource: CelesTrak SupGP

Epoca: Sep 15, 2026, 02:28 UTC

1 55296C 23010AD  26258.10326389 -.00027413  00000+0 -22966-2 0  2581
2 55296  69.9991 266.7569 0003919 266.5134 119.6382 14.98353896    19

Traccia STARLINK-5285 in tempo reale con AllMySat

Download on the App Store